1505271600.4,6755,15.44,73316.5,-2.51,-3.75,-3.87,0,*6A
1505271601.64,6756,15.44,73324.3,-2.51,-3.67,-3.79,0,*6B
1505271602.86,6757,15.44,73326.0,-2.51,-3.75,-3.79,0,*69
1505271604.09,6758,15.44,73328.0,-2.53,-3.71,-3.71,0,*68
1505271605.33,6759,15.44,73324.8,-2.55,-3.71,-3.83,0,*62
1505271606.52,6760,15.44,73312.0,-2.53,-3.95,-4.05,0,*6D
1505271607.71,6761,15.44,73310.5,-2.53,-4.05,-4.05,0,*62
1505271608.93,6762,15.44,73302.8,-2.55,-4.05,-4.09,0,*6B
1505271610.14,6763,15.44,73318.5,-2.55,-4.17,-4.17,0,*66
1505271611.36,6764,15.44,73316.0,-2.55,-4.17,-4.21,0,*64
1505271612.57,6765,15.44,73310.5,-2.55,-4.09,-4.17,0,*6F
1505271613.78,6766,15.44,73306.0,-2.55,-4.09,-4.17,0,*6C
1505271614.97,6767,15.44,73310.5,-2.57,-4.13,-4.13,0,*60
1505271616.15,6768,15.44,73308.0,-2.57,-4.13,-4.13,0,*6F
1505271617.34,6769,15.44,73306.3,-2.57,-4.09,-4.13,0,*65
1505271618.53,6770,15.44,73302.5,-2.57,-3.95,-3.95,0,*66
1505271619.78,6771,15.44,73308.0,-2.59,-3.91,-4.01,0,*67
1505271621.0,6772,15.44,73312.8,-2.59,-3.87,-3.87,0,*6A
1505271622.23,6773,15.44,73310.5,-2.59,-3.79,-3.79,0,*6B
1505271623.44,6774,15.44,73320.5,-2.59,-3.87,-3.87,0,*6C
1505271624.66,6775,15.44,73326.5,-2.59,-3.75,-3.87,0,*60
1505271625.88,6776,15.44,73328.5,-2.59,-3.87,-3.87,0,*6E
1505271627.1,6777,15.44,73330.3,-2.59,-4.05,-4.05,0,*6F
1505271628.31,6778,15.44,73324.3,-2.59,-4.17,-4.17,0,*60
1505271629.53,6779,15.44,73320.3,-2.59,-4.17,-4.25,0,*60
1505271630.71,6780,15.44,73314.3,-2.61,-4.17,-4.17,0,*6C
1505271631.9,6781,15.44,73306.0,-2.61,-4.05,-4.05,0,*6D
1505271633.12,6782,15.44,73298.5,-2.63,-4.09,-4.09,0,*6C
1505271634.32,6783,15.44,73298.0,-2.61,-3.91,-3.87,0,*68
1505271635.54,6784,15.44,73298.0,-2.63,-3.95,-4.05,0,*64
1505271636.73,6785,15.44,73302.8,-2.61,-3.87,-3.91,0,*6E
1505271637.93,6786,15.44,73306.3,-2.61,-3.75,-3.79,0,*66
1505271639.13,6787,15.44,73308.3,-2.61,-3.75,-3.79,0,*67
1505271640.36,6788,15.44,73306.5,-2.63,-3.79,-3.83,0,*63
1505271641.57,6789,15.44,73306.5,-2.61,-3.67,-3.75,0,*66
1505271642.8,6790,15.44,73308.5,-2.61,-3.55,-3.67,0,*6C
1505271644.04,6791,15.44,73314.8,-2.61,-3.63,-3.67,0,*68
1505271645.3,6792,15.44,73316.3,-2.63,-3.59,-3.67,0,*60
1505271646.54,6793,15.44,73320.0,-2.61,-3.63,-3.63,0,*6E
1505271647.77,6794,15.44,73322.5,-2.61,-3.55,-3.55,0,*69
1505271649.0,6795,15.44,73324.3,-2.61,-3.55,-3.63,0,*6D
1505271650.23,6796,15.44,73326.0,-2.61,-3.55,-3.63,0,*6E
1505271651.49,6797,15.44,73324.5,-2.63,-3.67,-3.67,0,*68
1505271652.69,6798,15.44,73316.3,-2.61,-3.87,-3.79,0,*64
1505271653.89,6799,15.44,73316.8,-2.61,-3.91,-3.91,0,*64
1505271655.13,6800,15.44,73312.5,-2.61,-4.01,-4.01,0,*6B
1505271656.36,6801,15.44,73308.8,-2.63,-3.95,-4.05,0,*66
1505271657.58,6802,15.44,73310.8,-2.63,-3.91,-3.91,0,*6B
1505271658.81,6803,15.44,73312.5,-2.63,-3.91,-3.95,0,*6E
1505271660.01,6804,15.44,73304.8,-2.61,-3.79,-3.79,0,*6F
1505271661.21,6805,15.44,73302.5,-2.61,-3.75,-3.79,0,*62
1505271662.43,6806,15.44,73302.0,-2.63,-3.79,-3.83,0,*6A
1505271663.63,6807,15.44,73298.3,-2.61,-3.75,-3.87,0,*61
1505271664.83,6808,15.44,73304.8,-2.61,-3.75,-3.79,0,*6F
1505271666.03,6809,15.44,73314.0,-2.61,-3.79,-3.79,0,*62
1505271667.29,6810,15.44,73314.8,-2.63,-3.71,-3.71,0,*68
1505271668.52,6811,15.44,73310.5,-2.61,-3.55,-3.55,0,*6B
1505271669.78,6812,15.44,73308.5,-2.63,-3.55,-3.43,0,*6D
1505271671.01,6813,15.44,73306.0,-2.61,-3.43,-3.43,0,*69
1505271672.28,6814,15.44,73316.3,-2.63,-3.47,-3.43,0,*68
1505271673.47,6815,15.44,73320.3,-2.61,-3.39,-3.35,0,*63
1505271674.69,6816,15.44,73324.0,-2.63,-3.31,-3.39,0,*66
1505271675.88,6817,15.44,73312.0,-2.61,-3.35,-3.35,0,*6D
1505271677.08,6818,15.44,73320.3,-2.61,-3.35,-3.35,0,*62
1505271678.27,6819,15.44,73322.0,-2.61,-3.39,-3.39,0,*63
1505271679.46,6820,15.44,73316.8,-2.61,-3.39,-3.39,0,*69
1505271680.7,6821,15.44,73314.0,-2.61,-3.51,-3.51,0,*68
1505271681.93,6822,15.44,73314.0,-2.61,-3.67,-3.63,0,*6F
1505271683.19,6823,15.44,73312.8,-2.59,-3.63,-3.55,0,*64
1505271684.45,6824,15.44,73312.8,-2.59,-3.55,-3.63,0,*63
1505271685.71,6825,15.44,73314.5,-2.59,-3.43,-3.51,0,*64
1505271686.98,6826,15.44,73312.0,-2.59,-3.51,-3.51,0,*64
1505271688.24,6827,15.44,73316.8,-2.59,-3.43,-3.43,0,*65
1505271689.48,6828,15.44,73310.0,-2.59,-3.43,-3.39,0,*67
1505271690.71,6829,15.44,73308.5,-2.61,-3.51,-3.43,0,*63
1505271691.98,6830,15.44,73304.0,-2.59,-3.43,-3.51,0,*60
1505271693.24,6831,15.44,73298.0,-2.59,-3.51,-3.43,0,*61
1505271694.5,6832,15.44,73302.8,-2.59,-3.51,-3.55,0,*65
1505271695.77,6833,15.44,73306.3,-2.59,-3.51,-3.43,0,*63
1505271696.95,6834,15.44,73300.3,-2.57,-3.39,-3.39,0,*69
1505271698.22,6835,15.44,73300.5,-2.59,-3.43,-3.43,0,*66
1505271699.43,6836,15.44,73312.0,-2.57,-3.47,-3.39,0,*62
1505271700.62,6837,15.44,73306.5,-2.57,-3.39,-3.35,0,*66
1505271701.81,6838,15.44,73304.8,-2.57,-3.31,-3.35,0,*61
1505271703.03,6839,15.44,73312.8,-2.59,-3.35,-3.35,0,*6A
1505271704.21,6840,15.44,73316.3,-2.57,-3.31,-3.31,0,*6A
1505271705.4,6841,15.44,73324.3,-2.57,-3.35,-3.31,0,*6F
1505271706.59,6842,15.44,73314.5,-2.57,-3.35,-3.35,0,*68
1505271707.78,6843,15.44,73304.0,-2.57,-3.35,-3.35,0,*69
1505271708.97,6844,15.44,73304.8,-2.57,-3.39,-3.39,0,*6E
1505271710.16,6845,15.44,73304.8,-2.57,-3.39,-3.39,0,*6F
1505271711.35,6846,15.44,73314.3,-2.57,-3.35,-3.39,0,*60
1505271712.53,6847,15.44,73308.8,-2.57,-3.35,-3.39,0,*61
1505271713.77,6848,15.44,73304.5,-2.55,-3.31,-3.43,0,*65
1505271714.96,6849,15.44,73306.3,-2.53,-3.35,-3.35,0,*67
1505271716.18,6850,15.44,73308.8,-2.55,-3.31,-3.31,0,*69
1505271717.39,6851,15.44,73310.3,-2.55,-3.31,-3.31,0,*68
1505271718.61,6852,15.44,73314.3,-2.55,-3.31,-3.27,0,*6C
1505271719.81,6853,15.44,73318.0,-2.53,-3.31,-3.27,0,*6B
1505271721.03,6854,15.44,73318.0,-2.55,-3.27,-3.27,0,*6D
1505271722.24,6855,15.44,73322.5,-2.55,-3.27,-3.19,0,*61
1505271723.45,6856,15.44,73322.3,-2.55,-3.27,-3.19,0,*62
1505271724.65,6857,15.44,73320.8,-2.53,-3.27,-3.27,0,*68
1505271725.85,6858,15.44,73322.3,-2.53,-3.27,-3.27,0,*67
1505271727.07,6859,15.44,73324.0,-2.55,-3.27,-3.27,0,*60
1505271728.29,6860,15.44,73324.8,-2.55,-3.15,-3.27,0,*6B
1505271729.49,6861,15.44,73326.3,-2.51,-3.15,-3.23,0,*6A
1505271730.69,6862,15.44,73322.3,-2.53,-3.27,-3.27,0,*6E
1505271731.88,6863,15.44,73316.3,-2.53,-3.27,-3.31,0,*68
1505271733.07,6864,15.44,73314.8,-2.53,-3.31,-3.31,0,*68
1505271734.26,6865,15.44,73314.5,-2.53,-3.35,-3.31,0,*6D
1505271735.5,6866,15.44,73322.0,-2.53,-3.47,-3.43,0,*6E
1505271736.73,6867,15.44,73308.3,-2.53,-3.59,-3.67,0,*66
1505271737.95,6868,15.44,73306.5,-2.53,-3.79,-3.71,0,*6C
1505271739.19,6869,15.44,73306.5,-2.55,-3.79,-3.71,0,*6B
1505271740.45,6870,15.44,73304.5,-2.55,-3.67,-3.59,0,*66
1505271741.69,6871,15.44,73316.5,-2.53,-3.59,-3.67,0,*61
1505271742.92,6872,15.44,73314.8,-2.53,-3.59,-3.67,0,*62
1505271744.18,6873,15.44,73316.8,-2.55,-3.59,-3.67,0,*65
1505271745.45,6874,15.44,73318.3,-2.55,-3.55,-3.59,0,*63
1505271746.71,6875,15.44,73316.5,-2.55,-3.47,-3.59,0,*61
1505271747.97,6876,15.44,73326.0,-2.55,-3.59,-3.47,0,*62
1505271749.21,6877,15.44,73320.3,-2.53,-3.59,-3.59,0,*6A
1505271750.47,6878,15.44,73316.0,-2.55,-3.59,-3.67,0,*6E
1505271751.73,6879,15.44,73310.0,-2.55,-3.67,-3.67,0,*62
1505271752.98,6880,15.44,73314.8,-2.55,-3.67,-3.71,0,*63
1505271754.25,6881,15.44,73312.8,-2.55,-3.59,-3.59,0,*65
1505271755.51,6882,15.44,73312.3,-2.55,-3.55,-3.59,0,*6A
1505271756.75,6883,15.44,73316.3,-2.53,-3.47,-3.47,0,*61
1505271757.99,6884,15.44,73322.3,-2.55,-3.43,-3.35,0,*61
1505271759.22,6885,15.44,73318.0,-2.57,-3.51,-3.51,0,*63
1505271760.48,6886,15.44,73310.8,-2.59,-3.63,-3.63,0,*6E
1505271761.68,6887,15.44,73300.3,-2.57,-3.75,-3.83,0,*68
1505271762.87,6888,15.44,73308.3,-2.57,-3.83,-3.87,0,*6A
1505271764.06,6889,15.44,73306.0,-2.57,-3.87,-3.95,0,*6C
1505271765.28,6890,15.44,73306.5,-2.59,-3.91,-4.05,0,*63
1505271766.5,6891,15.44,73312.0,-2.59,-3.87,-3.87,0,*68
1505271767.72,6892,15.44,73314.5,-2.59,-3.75,-3.79,0,*67
1505271768.97,6893,15.44,73314.5,-2.59,-3.75,-3.67,0,*69
1505271770.21,6894,15.44,73314.8,-2.59,-3.67,-3.75,0,*6E
1505271771.43,6895,15.44,73320.5,-2.59,-3.75,-3.75,0,*6C
1505271772.65,6896,15.44,73320.0,-2.57,-3.75,-3.67,0,*62
1505271773.91,6897,15.44,73316.0,-2.59,-3.63,-3.63,0,*6E
1505271775.15,6898,15.44,73322.8,-2.57,-3.51,-3.59,0,*67
1505271776.4,6899,15.44,73320.5,-2.59,-3.55,-3.63,0,*65
1505271777.66,6900,15.44,73322.0,-2.59,-3.55,-3.55,0,*61
1505271778.92,6901,15.44,73320.0,-2.59,-3.63,-3.63,0,*60
1505271780.17,6902,15.44,73322.5,-2.59,-3.75,-3.67,0,*60
1505271781.4,6903,15.44,73312.5,-2.57,-3.71,-3.71,0,*6C
1505271782.59,6904,15.44,73316.3,-2.57,-3.83,-3.83,0,*6B
1505271783.81,6905,15.44,73308.3,-2.59,-3.79,-3.79,0,*64
1505271785.03,6906,15.44,73316.0,-2.57,-3.71,-3.75,0,*6D
1505271786.25,6907,15.44,73312.3,-2.59,-3.75,-3.75,0,*66
1505271787.48,6908,15.44,73308.0,-2.59,-3.75,-3.79,0,*65
1505271788.72,6909,15.44,73300.8,-2.59,-3.87,-4.01,0,*61
1505271789.94,6910,15.44,73302.8,-2.59,-3.87,-3.91,0,*67
1505271791.14,6911,15.44,73304.5,-2.61,-3.87,-3.91,0,*6D
1505271792.35,6912,15.44,73306.5,-2.61,-3.67,-3.75,0,*6A
1505271793.59,6913,15.44,73310.8,-2.61,-3.67,-3.67,0,*68
1505271794.82,6914,15.44,73308.0,-2.61,-3.67,-3.67,0,*6F
1505271796.05,6915,15.44,73304.8,-2.61,-3.67,-3.67,0,*6E
1505271797.28,6916,15.44,73310.8,-2.61,-3.55,-3.55,0,*6D
1505271798.52,6917,15.44,73310.0,-2.61,-3.51,-3.51,0,*6C
1505271799.76,6918,15.44,73312.8,-2.61,-3.43,-3.43,0,*63
1505271800.99,6919,15.44,73316.5,-2.61,-3.43,-3.43,0,*62
1505271802.25,6920,15.44,73310.8,-2.59,-3.51,-3.43,0,*60
1505271803.52,6921,15.44,73310.8,-2.59,-3.43,-3.43,0,*62
1505271804.78,6922,15.44,73312.8,-2.59,-3.43,-3.43,0,*61
1505271806.04,6923,15.44,73312.3,-2.59,-3.43,-3.51,0,*63
1505271807.23,6924,15.44,73314.8,-2.57,-3.39,-3.39,0,*69
1505271808.49,6925,15.44,73306.8,-2.59,-3.43,-3.43,0,*66
1505271809.75,6926,15.44,73306.3,-2.59,-3.43,-3.43,0,*65
1505271811.01,6927,15.44,73310.8,-2.59,-3.43,-3.43,0,*64
1505271812.27,6928,15.44,73310.5,-2.59,-3.51,-3.47,0,*6C
1505271813.52,6929,15.44,73314.8,-2.59,-3.43,-3.39,0,*67
1505271814.73,6930,15.44,73320.0,-2.59,-3.35,-3.39,0,*6E
1505271815.95,6931,15.44,73318.5,-2.59,-3.39,-3.39,0,*63
1505271817.13,6932,15.44,73312.0,-2.57,-3.19,-3.19,0,*6E
1505271818.34,6933,15.44,73310.8,-2.59,-3.23,-3.15,0,*64
1505271819.53,6934,15.44,73308.5,-2.57,-3.11,-3.07,0,*6F
1505271820.71,6935,15.44,73314.3,-2.57,-3.11,-3.11,0,*69
1505271821.9,6936,15.44,73314.0,-2.57,-3.19,-3.11,0,*62
1505271823.09,6937,15.44,73314.3,-2.57,-3.11,-3.11,0,*6B
1505271824.27,6938,15.44,73306.5,-2.57,-3.11,-3.11,0,*64
1505271825.49,6939,15.44,73304.3,-2.55,-3.07,-3.07,0,*67
1505271826.7,6940,15.44,73306.3,-2.55,-3.07,-3.07,0,*69
1505271827.89,6941,15.44,73304.5,-2.53,-3.15,-3.19,0,*62
1505271829.07,6942,15.44,73302.8,-2.53,-3.19,-3.19,0,*6D
1505271830.26,6943,15.44,73306.8,-2.53,-3.19,-3.19,0,*6C
1505271831.44,6944,15.44,73306.8,-2.53,-3.19,-3.19,0,*6B
1505271832.63,6945,15.44,73316.8,-2.53,-3.15,-3.15,0,*6A
1505271833.82,6946,15.44,73318.0,-2.53,-3.15,-3.07,0,*6A
1505271835.02,6947,15.44,73310.5,-2.53,-3.15,-3.07,0,*6B
1505271836.22,6948,15.44,73304.8,-2.51,-3.23,-3.15,0,*60
1505271837.43,6949,15.44,73302.3,-2.51,-3.27,-3.31,0,*63
1505271838.62,6950,15.44,73312.0,-2.49,-3.31,-3.31,0,*65
1505271839.83,6951,15.44,73314.8,-2.51,-3.31,-3.31,0,*6D
1505271841.02,6952,15.44,73326.5,-2.49,-3.27,-3.31,0,*60
1505271842.23,6953,15.44,73316.8,-2.51,-3.31,-3.31,0,*6F
1505271843.45,6954,15.44,73310.3,-2.51,-3.31,-3.39,0,*60
1505271844.66,6955,15.44,73310.3,-2.51,-3.39,-3.39,0,*69
1505271845.88,6956,15.44,73308.3,-2.51,-3.39,-3.39,0,*6A
1505271847.09,6957,15.44,73296.5,-2.51,-3.31,-3.39,0,*63
1505271848.35,6958,15.44,73290.3,-2.51,-3.43,-3.51,0,*67
1505271849.61,6959,15.44,73298.5,-2.51,-3.43,-3.43,0,*65
1505271850.82,6960,15.44,73292.3,-2.53,-3.35,-3.43,0,*6C
1505271852.02,6961,15.44,73292.0,-2.53,-3.35,-3.35,0,*6C
1505271853.21,6962,15.44,73300.8,-2.53,-3.35,-3.35,0,*6F
1505271854.4,6963,15.44,73314.8,-2.53,-3.35,-3.35,0,*6E
1505271855.59,6964,15.44,73314.8,-2.53,-3.31,-3.35,0,*6D
1505271856.78,6965,15.44,73314.8,-2.53,-3.31,-3.31,0,*68
1505271857.99,6966,15.44,73316.5,-2.51,-3.27,-3.23,0,*6D
1505271859.21,6967,15.44,73320.5,-2.51,-3.27,-3.27,0,*68
1505271860.42,6968,15.44,73322.0,-2.51,-3.27,-3.23,0,*63
1505271861.63,6969,15.44,73324.5,-2.51,-3.27,-3.23,0,*62
1505271862.84,6970,15.44,73324.3,-2.51,-3.27,-3.23,0,*6A
1505271864.06,6971,15.44,73322.0,-2.51,-3.27,-3.27,0,*6F
1505271865.28,6972,15.44,73318.3,-2.51,-3.27,-3.27,0,*6C
1505271866.46,6973,15.44,73320.5,-2.49,-3.39,-3.31,0,*6C
1505271867.68,6974,15.44,73326.3,-2.51,-3.31,-3.31,0,*6A
1505271868.94,6975,15.44,73322.5,-2.51,-3.43,-3.43,0,*6B
1505271870.19,6976,15.44,73324.3,-2.51,-3.43,-3.51,0,*6B
1505271871.39,6977,15.44,73324.3,-2.49,-3.79,-3.79,0,*60
1505271872.66,6978,15.44,73322.3,-2.51,-4.01,-4.01,0,*66
1505271873.85,6979,15.44,73318.5,-2.53,-4.17,-4.09,0,*6A
1505271875.03,6980,15.44,73312.8,-2.53,-4.17,-4.17,0,*63
1505271876.22,6981,15.44,73312.3,-2.53,-4.09,-4.09,0,*62
1505271877.43,6982,15.44,73310.0,-2.55,-4.17,-4.17,0,*67
1505271878.64,6983,15.44,73310.5,-2.55,-4.09,-4.17,0,*69
1505271879.85,6984,15.44,73316.3,-2.55,-4.05,-4.09,0,*6D
1505271881.04,6985,15.44,73308.8,-2.57,-4.09,-4.13,0,*69
1505271882.26,6986,15.44,73304.0,-2.59,-4.13,-4.13,0,*6F
1505271883.48,6987,15.44,73304.8,-2.59,-4.05,-4.13,0,*69
1505271884.73,6988,15.44,73296.8,-2.59,-4.01,-4.05,0,*65
1505271885.94,6989,15.44,73292.3,-2.59,-3.87,-3.87,0,*60
1505271887.16,6990,15.44,73294.8,-2.59,-3.87,-3.87,0,*68
1505271888.38,6991,15.44,73290.3,-2.59,-3.79,-3.79,0,*69
1505271889.61,6992,15.44,73290.5,-2.59,-3.75,-3.79,0,*66
1505271890.87,6993,15.44,73284.5,-2.59,-3.55,-3.55,0,*6B
1505271892.13,6994,15.44,73282.8,-2.59,-3.55,-3.51,0,*68
1505271893.37,6995,15.44,73274.0,-2.59,-3.43,-3.39,0,*60
1505271894.59,6996,15.44,73292.8,-2.59,-3.39,-3.39,0,*6E
1505271895.8,6997,15.44,73308.5,-2.59,-3.39,-3.39,0,*6F
1505271897.02,6998,15.44,73292.3,-2.59,-3.39,-3.39,0,*60
1505271898.24,6999,15.44,73290.0,-2.59,-3.35,-3.39,0,*6D
1505271899.43,7000,15.44,73304.8,-2.57,-3.35,-3.39,0,*6B
1505271900.62,7001,15.44,73310.3,-2.57,-3.35,-3.35,0,*66
1505271901.81,7002,15.44,73312.3,-2.57,-3.35,-3.39,0,*69
1505271903.02,7003,15.44,73308.5,-2.57,-3.35,-3.47,0,*61
1505271904.21,7004,15.44,73314.3,-2.57,-3.35,-3.39,0,*6F
1505271905.39,7005,15.44,73316.3,-2.57,-3.35,-3.39,0,*6E
1505271906.6,7006,15.44,73318.3,-2.57,-3.35,-3.47,0,*64
1505271907.79,7007,15.44,73314.5,-2.57,-3.35,-3.39,0,*6C
1505271908.98,7008,15.44,73316.0,-2.57,-3.35,-3.39,0,*63
1505271910.2,7009,15.44,73318.8,-2.55,-3.31,-3.35,0,*68
1505271911.41,7010,15.44,73322.3,-2.55,-3.35,-3.35,0,*64
1505271912.65,7011,15.44,73324.8,-2.55,-3.35,-3.43,0,*64
1505271913.91,7012,15.44,73320.5,-2.55,-3.43,-3.43,0,*66
1505271915.17,7013,15.44,73314.8,-2.55,-3.43,-3.43,0,*67
1505271916.41,7014,15.44,73326.8,-2.55,-3.43,-3.35,0,*61
1505271917.65,7015,15.44,73324.3,-2.55,-3.43,-3.35,0,*60
1505271918.89,7016,15.44,73320.8,-2.55,-3.47,-3.35,0,*67
1505271920.15,7017,15.44,73322.0,-2.55,-3.47,-3.43,0,*67
1505271921.38,7018,15.44,73320.0,-2.53,-3.43,-3.43,0,*6A
1505271922.64,7019,15.44,73320.8,-2.55,-3.43,-3.47,0,*69
1505271923.9,7020,15.44,73326.0,-2.55,-3.43,-3.55,0,*60
1505271925.16,7021,15.44,73322.8,-2.55,-3.59,-3.59,0,*66
1505271926.43,7022,15.44,73320.8,-2.55,-3.59,-3.59,0,*65
1505271927.7,7023,15.44,73320.3,-2.55,-3.59,-3.59,0,*64
1505271928.95,7024,15.44,73322.5,-2.55,-3.67,-3.67,0,*63
1505271930.21,7025,15.44,73326.8,-2.55,-3.71,-3.67,0,*65
1505271931.42,7026,15.44,73322.8,-2.57,-3.71,-3.75,0,*67
1505271932.62,7027,15.44,73314.5,-2.57,-3.75,-3.75,0,*62
1505271933.89,7028,15.44,73314.0,-2.59,-4.01,-4.01,0,*63
1505271935.11,7029,15.44,73314.8,-2.59,-4.05,-4.13,0,*65
1505271936.35,7030,15.44,73314.0,-2.57,-4.01,-4.01,0,*64
1505271937.6,7031,15.44,73312.5,-2.59,-4.01,-3.91,0,*65
1505271938.83,7032,15.44,73314.0,-2.59,-3.79,-3.91,0,*6E
1505271940.05,7033,15.44,73318.5,-2.59,-3.87,-3.91,0,*6E
1505271941.27,7034,15.44,73324.5,-2.59,-3.87,-3.87,0,*6E
1505271942.49,7035,15.44,73310.3,-2.59,-3.87,-3.91,0,*68
1505271943.71,7036,15.44,73310.3,-2.59,-3.91,-3.91,0,*6C
1505271944.93,7037,15.44,73316.5,-2.59,-3.87,-3.87,0,*6D
1505271946.14,7038,15.44,73318.3,-2.59,-3.87,-3.87,0,*62
1505271947.42,7039,15.44,73308.3,-2.59,-4.01,-4.01,0,*63
1505271948.67,7040,15.44,73316.5,-2.59,-4.01,-3.91,0,*63
1505271949.89,7041,15.44,73320.8,-2.59,-3.91,-3.91,0,*6C
1505271951.08,7042,15.44,73322.5,-2.61,-3.87,-3.87,0,*64
1505271952.27,7043,15.44,73320.3,-2.61,-3.87,-3.87,0,*65
1505271953.46,7044,15.44,73314.0,-2.61,-3.87,-3.87,0,*62
1505271954.69,7045,15.44,73310.8,-2.63,-3.83,-3.83,0,*61
1505271955.89,7046,15.44,73312.8,-2.61,-3.79,-3.79,0,*60
1505271957.09,7047,15.44,73314.3,-2.61,-3.75,-3.79,0,*6D
1505271958.31,7048,15.44,73318.0,-2.63,-3.79,-3.79,0,*6C
1505271959.55,7049,15.44,73322.3,-2.63,-3.71,-3.79,0,*65
1505271960.8,7050,15.44,73322.3,-2.63,-3.79,-3.71,0,*6D
1505271962.06,7051,15.44,73314.0,-2.63,-3.67,-3.67,0,*64
1505271963.32,7052,15.44,73320.3,-2.63,-3.67,-3.67,0,*67
1505271964.58,7053,15.44,73324.8,-2.63,-3.67,-3.59,0,*6B
1505271965.84,7054,15.44,73322.0,-2.63,-3.71,-3.71,0,*61
1505271967.06,7055,15.44,73322.3,-2.61,-3.71,-3.75,0,*66
1505271968.26,7056,15.44,73318.0,-2.61,-3.75,-3.75,0,*61
1505271969.45,7057,15.44,73326.8,-2.61,-3.87,-3.75,0,*6D
1505271970.67,7058,15.44,73314.3,-2.63,-3.83,-3.83,0,*6D
1505271971.9,7059,15.44,73298.5,-2.63,-3.91,-3.91,0,*6C
1505271973.12,7060,15.44,73308.0,-2.63,-3.95,-4.05,0,*68
1505271974.35,7061,15.44,73316.3,-2.63,-3.91,-3.95,0,*63
1505271975.57,7062,15.44,73322.8,-2.63,-3.91,-3.83,0,*67
1505271976.8,7063,15.44,73322.0,-2.63,-3.91,-3.91,0,*65
1505271978.03,7064,15.44,73314.5,-2.63,-3.91,-3.95,0,*66
1505271979.25,7065,15.44,73306.3,-2.63,-3.91,-4.05,0,*69
1505271980.47,7066,15.44,73318.3,-2.63,-3.95,-3.95,0,*60
1505271981.67,7067,15.44,73328.8,-2.65,-3.95,-3.91,0,*63
1505271982.9,7068,15.44,73316.5,-2.63,-3.91,-3.91,0,*6E
1505271984.12,7069,15.44,73304.0,-2.63,-3.91,-3.95,0,*6B
1505271985.35,7070,15.44,73302.5,-2.63,-3.95,-4.05,0,*69
1505271986.54,7071,15.44,73296.3,-2.65,-3.95,-3.95,0,*60
1505271987.79,7072,15.44,73294.0,-2.67,-3.95,-4.01,0,*6B
1505271988.99,7073,15.44,73296.0,-2.65,-3.83,-3.91,0,*61
1505271990.19,7074,15.44,73296.5,-2.65,-3.79,-3.79,0,*65
1505271991.4,7075,15.44,73294.8,-2.65,-3.79,-3.67,0,*6B
1505271992.66,7076,15.44,73312.5,-2.67,-3.63,-3.71,0,*66
1505271993.9,7077,15.44,73316.0,-2.65,-3.67,-3.59,0,*6B
1505271995.16,7078,15.44,73312.0,-2.67,-3.63,-3.71,0,*68
1505271996.41,7079,15.44,73310.0,-2.65,-3.59,-3.59,0,*68
1505271997.64,7080,15.44,73314.0,-2.65,-3.55,-3.55,0,*6E
1505271998.89,7081,15.44,73318.5,-2.63,-3.55,-3.47,0,*6A
1505272000.15,7082,15.44,73310.3,-2.63,-3.55,-3.47,0,*69
1505272001.41,7083,15.44,73312.0,-2.63,-3.43,-3.47,0,*6F
1505272002.63,7084,15.44,73316.0,-2.63,-3.39,-3.39,0,*6C
1505272003.82,7085,15.44,73312.3,-2.61,-3.23,-3.31,0,*6C
1505272005.01,7086,15.44,73302.3,-2.61,-3.31,-3.27,0,*6B
1505272006.2,7087,15.44,73300.5,-2.61,-3.27,-3.35,0,*6E
1505272007.39,7088,15.44,73296.5,-2.61,-3.27,-3.23,0,*66
1505272008.61,7089,15.44,73308.8,-2.63,-3.31,-3.27,0,*66
1505272009.79,7090,15.44,73322.0,-2.61,-3.23,-3.23,0,*6B
1505272010.98,7091,15.44,73316.3,-2.61,-3.15,-3.11,0,*6E
1505272012.18,7092,15.44,73312.0,-2.61,-3.15,-3.11,0,*6D
1505272013.36,7093,15.44,73320.0,-2.57,-3.19,-3.11,0,*65
1505272014.57,7094,15.44,73310.5,-2.59,-3.23,-3.15,0,*61
1505272015.76,7095,15.44,73308.3,-2.57,-3.35,-3.35,0,*6B
1505272017.02,7096,15.44,73298.3,-2.59,-3.51,-3.43,0,*65
1505272018.23,7097,15.44,73300.3,-2.57,-3.35,-3.43,0,*68
1505272019.42,7098,15.44,73304.5,-2.57,-3.35,-3.31,0,*62
1505272020.61,7099,15.44,73308.8,-2.57,-3.35,-3.35,0,*67
1505272021.8,7100,15.44,73308.3,-2.57,-3.35,-3.31,0,*62
1505272022.99,7101,15.44,73312.0,-2.57,-3.35,-3.35,0,*67
1505272024.2,7102,15.44,73312.5,-2.59,-3.39,-3.39,0,*6A
1505272025.39,7103,15.44,73302.3,-2.57,-3.31,-3.35,0,*61
1505272026.58,7104,15.44,73306.8,-2.57,-3.31,-3.35,0,*66
1505272027.77,7105,15.44,73314.0,-2.57,-3.35,-3.35,0,*63
1505272028.96,7106,15.44,73314.3,-2.57,-3.31,-3.31,0,*60
1505272030.15,7107,15.44,73306.0,-2.57,-3.35,-3.35,0,*61
1505272031.34,7108,15.44,73306.3,-2.57,-3.31,-3.35,0,*6A
1505272032.52,7109,15.44,73316.3,-2.57,-3.35,-3.31,0,*6B
1505272033.74,7110,15.44,73314.5,-2.55,-3.31,-3.31,0,*65
1505272034.93,7111,15.44,73318.3,-2.53,-3.31,-3.27,0,*65
1505272036.15,7112,15.44,73314.8,-2.55,-3.27,-3.31,0,*60
1505272037.34,7113,15.44,73320.0,-2.53,-3.19,-3.27,0,*6D
1505272038.56,7114,15.44,73314.3,-2.55,-3.27,-3.27,0,*61
1505272039.8,7115,15.44,73314.8,-2.55,-3.35,-3.43,0,*61
1505272040.99,7116,15.44,73320.0,-2.53,-3.35,-3.35,0,*65
1505272042.21,7117,15.44,73326.5,-2.55,-3.31,-3.35,0,*66
1505272043.4,7118,15.44,73322.3,-2.53,-3.31,-3.35,0,*6F
1505272044.61,7119,15.44,73322.0,-2.55,-3.31,-3.31,0,*6C
1505272045.81,7120,15.44,73320.5,-2.53,-3.31,-3.27,0,*67
1505272047.0,7121,15.44,73316.5,-2.53,-3.31,-3.31,0,*61
1505272048.19,7122,15.44,73320.5,-2.53,-3.35,-3.35,0,*62
1505272049.41,7123,15.44,73320.8,-2.55,-3.35,-3.35,0,*65
1505272050.62,7124,15.44,73318.5,-2.53,-3.43,-3.35,0,*65
1505272051.84,7125,15.44,73314.5,-2.53,-3.35,-3.43,0,*64
1505272053.05,7126,15.44,73318.0,-2.53,-3.43,-3.35,0,*67
1505272054.27,7127,15.44,73322.8,-2.53,-3.43,-3.35,0,*66
1505272055.48,7128,15.44,73316.0,-2.53,-3.43,-3.35,0,*69
1505272056.69,7129,15.44,73312.8,-2.53,-3.35,-3.43,0,*68
1505272057.95,7130,15.44,73308.3,-2.55,-3.43,-3.43,0,*67
1505272059.17,7131,15.44,73304.5,-2.53,-3.35,-3.43,0,*61
1505272060.38,7132,15.44,73306.0,-2.55,-3.35,-3.35,0,*65
1505272061.6,7133,15.44,73310.8,-2.55,-3.35,-3.31,0,*60
1505272062.79,7134,15.44,73322.3,-2.53,-3.31,-3.27,0,*62
1505272063.98,7135,15.44,73328.0,-2.53,-3.19,-3.19,0,*64
1505272065.17,7136,15.44,73318.0,-2.53,-3.31,-3.27,0,*60
1505272066.37,7137,15.44,73320.8,-2.53,-3.31,-3.35,0,*62
1505272067.56,7138,15.44,73320.3,-2.53,-3.35,-3.35,0,*69
1505272068.75,7139,15.44,73322.3,-2.53,-3.35,-3.35,0,*68
1505272069.97,7140,15.44,73326.8,-2.55,-3.35,-3.35,0,*60
1505272071.2,7141,15.44,73326.3,-2.53,-3.43,-3.43,0,*67
1505272072.44,7142,15.44,73324.8,-2.53,-3.43,-3.43,0,*64
1505272073.67,7143,15.44,73320.8,-2.53,-3.43,-3.43,0,*65
1505272074.91,7144,15.44,73324.5,-2.53,-3.47,-3.43,0,*66
1505272076.17,7145,15.44,73324.8,-2.51,-3.51,-3.51,0,*61
1505272077.41,7146,15.44,73318.8,-2.53,-3.47,-3.47,0,*60
1505272078.64,7147,15.44,73322.3,-2.53,-3.47,-3.47,0,*61
1505272079.88,7148,15.44,73322.0,-2.53,-3.43,-3.43,0,*6E
1505272081.11,7149,15.44,73316.3,-2.53,-3.43,-3.47,0,*6B
1505272082.34,7150,15.44,73314.3,-2.53,-3.55,-3.47,0,*64
1505272083.6,7151,15.44,73306.5,-2.55,-3.47,-3.47,0,*60
1505272084.81,7152,15.44,73310.8,-2.51,-3.39,-3.39,0,*67
1505272086.03,7153,15.44,73312.8,-2.51,-3.31,-3.31,0,*66
1505272087.22,7154,15.5,73322.0,-2.53,-3.35,-3.35,0,*63
1505272088.41,7155,15.44,73314.0,-2.53,-3.35,-3.35,0,*62
1505272089.63,7156,15.44,73308.5,-2.55,-3.35,-3.35,0,*67
1505272090.84,7157,15.44,73314.5,-2.53,-3.43,-3.35,0,*61
1505272092.06,7158,15.44,73316.0,-2.53,-3.43,-3.35,0,*6E
1505272093.31,7159,15.44,73314.8,-2.55,-3.43,-3.47,0,*6C
1505272094.53,7160,15.44,73312.0,-2.51,-3.39,-3.39,0,*66
1505272095.76,7161,15.44,73314.0,-2.53,-3.47,-3.43,0,*61
1505272097.0,7162,15.44,73314.8,-2.55,-3.35,-3.43,0,*61
1505272098.22,7163,15.44,73312.5,-2.53,-3.35,-3.43,0,*66
1505272099.45,7164,15.44,73312.0,-2.53,-3.43,-3.43,0,*60
1505272100.64,7165,15.44,73310.5,-2.53,-3.35,-3.35,0,*61
1505272101.86,7166,15.44,73308.3,-2.55,-3.27,-3.27,0,*64
1505272103.06,7167,15.44,73316.3,-2.53,-3.19,-3.27,0,*6E
1505272104.24,7168,15.44,73316.3,-2.53,-3.15,-3.19,0,*60
1505272105.43,7169,15.44,73306.3,-2.53,-3.31,-3.31,0,*6D
1505272106.62,7170,15.44,73308.5,-2.53,-3.31,-3.31,0,*65
1505272107.81,7171,15.44,73308.3,-2.53,-3.27,-3.31,0,*63
1505272109.01,7172,15.44,73304.5,-2.53,-3.31,-3.27,0,*60
1505272110.23,7173,15.44,73312.3,-2.51,-3.27,-3.27,0,*64
1505272111.43,7174,15.44,73312.0,-2.51,-3.23,-3.23,0,*63
1505272112.65,7175,15.44,73314.3,-2.51,-3.15,-3.11,0,*66